Regional Weather Roundup
Issued by NWS

Home | Current Version | Previous Version | Text Only | Print | Product List | Glossary Off
Versions: 1 2 3 4 5 6 7 8 9 10 11 12 13 14 15 16 17 18 19 20 21 22 23 24 25 26 27 28 29 30 31 32 33 34 35 36 37 38 39 40 41 42 43 44 45 46 47 48 49 50

000
ASUS45 KABQ 240601
RWRNM
WEATHER ROUNDUP FOR NEW MEXICO
NATIONAL WEATHER SERVICE ALBUQUERQUE NM
1200 AM MDT THU JUL 24 2014

NOTE: "FAIR" MEANS FEW OR NO CLOUDS BELOW 12,000 FEET AGL WITH NO
       SIGNIFICANT WEATHER OR OBSTRUCTIONS TO VISION.

      THIS PRODUCT IS RELEASED AS TWO VERSIONS.  ONE VERSION NEAR
      THE TOP OF THE HOUR CONTAINING PRELIMINARY DATA FROM ALBUQUERQUE
      AND OTHER STATIONS.  A FINAL VERSION WITH ADDITIONAL DATA IS
      ISSUED ABOUT 10 MINUTES AFTER THE HOUR.

NMZ501-503-504-510>518-240700-
NORTHWEST PLATEAU/NORTHCENTRAL MOUNTAINS

CITY           SKY/WX    TMP DP  RH WIND       PRES   REMARKS
FARMINGTON     CLEAR     78  49  35 E13       30.30R
6HR MIN TEMP:  77; 6HR MAX TEMP:  96;

LOS ALAMOS     CLEAR     68  46  45 SW6       30.49S
SANTA FE       CLEAR     67  52  58 E9        30.41R
6HR MIN TEMP:  67; 6HR MAX TEMP:  77;

TAOS           PTCLDY    61  46  59 CALM      30.49F
ANGEL FIRE     FAIR      47  43  88 CALM      30.60R

$$
NMZ402-403-502-505>509-240700-
WESTCENTRAL MOUNTAINS/SOUTHWEST MOUNTAINS

CITY           SKY/WX    TMP DP  RH WIND       PRES   REMARKS
GALLUP         PTCLDY    60  55  83 CALM      30.40R
6HR MIN TEMP:  60; 6HR MAX TEMP:  78; 6HR PCP:  0.02;


$$
NMZ407-409-411-412-240700-
SOUTHERN DESERTS

CITY           SKY/WX    TMP DP  RH WIND       PRES   REMARKS
DEMING         PTCLDY    76  50  40 E5        30.20R
6HR MIN TEMP:  75; 6HR MAX TEMP:  94;

LAS CRUCES     PTCLDY    81  42  25 E8        30.24R
HOLLOMAN AFB   PTCLDY    77  45  31 SE6       30.21R
T OR C         LGT RAIN  76  47  35 SW3       30.26R
6HR MIN TEMP:  76; 6HR MAX TEMP:  88; 6HR PCP: TRACE;


$$
NMZ519>523-240700-
CENTRAL VALLEYS/CENTRAL HIGHLANDS

CITY           SKY/WX    TMP DP  RH WIND       PRES   REMARKS
ALBUQUERQUE    PTCLDY    78  48  34 SE9       30.32R
6HR MIN TEMP:  76; 6HR MAX TEMP:  89;

DOUBLE EAGLE   PTCLDY    70  54  55 S5        30.37R
CLINES CORNERS PTCLDY    63  49  60 SE7       30.47R
6HR MIN TEMP:  63; 6HR MAX TEMP:  78;

BELEN          FAIR      76  49  38 E8        30.31R
6HR MIN TEMP:  72; 6HR MAX TEMP:  89;

SOCORRO        NOT AVBL

$$
NMZ524>526-539-540-240700-
SOUTHCENTRAL MOUNTAINS

CITY           SKY/WX    TMP DP  RH WIND       PRES   REMARKS
RUIDOSO        NOT AVBL

$$
NMZ527>531-240700-
NORTHEAST HIGHLANDS/NORTHEAST PLAINS

CITY           SKY/WX    TMP DP  RH WIND       PRES   REMARKS
LAS VEGAS      CLEAR     63  47  55 S8        30.47R
6HR MIN TEMP:  63; 6HR MAX TEMP:  80;

RATON          NOT AVBL
CLAYTON        PTCLDY    74  52  46 SW10      30.30F
6HR MIN TEMP:  73; 6HR MAX TEMP:  91;


$$
NMZ532>537-240700-
EASTCENTRAL PLAINS

CITY           SKY/WX    TMP DP  RH WIND       PRES   REMARKS
TUCUMCARI      PTCLDY    76  57  51 SW5       30.24R
6HR MIN TEMP:  76; 6HR MAX TEMP:  96;

CANNON AFB     CLEAR     70  60  70 SE5       30.29R
6HR MIN TEMP:  70; 6HR MAX TEMP:  90; 6HR PCP: TRACE;

CLOVIS AIRPORT CLEAR     73  57  56 SE9       30.31R

$$
NMZ028-029-538-240700-
SOUTHEAST PLAINS

CITY           SKY/WX    TMP DP  RH WIND       PRES   REMARKS
ROSWELL        CLEAR     80  54  40 SE7       30.21R
6HR MIN TEMP:  79; 6HR MAX TEMP:  97;

CARLSBAD       CLOUDY    87  53  31 S6        30.17R
6HR MIN TEMP:  86; 6HR MAX TEMP:  98;

HOBBS          CLEAR     77  50  38 E8        30.23S


$$


USA.gov is the U.S. government's official web portal to all federal, state and local government web resources and services.